{"data":{"norad_id":58234,"intl_designator":"2023-171E","name":"STARLINK-30860","alt_names":[],"object_type":"PAYLOAD","status":"ACTIVE","operator":null,"country":"US","launch_date":"2023-11-08","launch_site_code":"AFETR","launch_vehicle":null,"mission":null,"orbit_class":"UNKNOWN","rcs_meters":null,"size_class":null,"mass_kg":null,"dimensions":null,"purposes":["comms"],"wikipedia_slug":null,"has_3d_model":false,"image_url":null,"decayed_at":null,"tle_current":{"epoch":"2026-09-20T16:47:53.095776Z","epoch_age_seconds":126432,"freshness":"FRESH","line1":"1 58234U 23171E   26263.69992009 -.00000110  00000+0  55333-5 0  9995","line2":"2 58234  43.0013 263.5087 0001083 280.3717  79.7013 15.27576149159566","mean_motion":15.27576149,"eccentricity":0.0001083,"inclination_deg":43.0013,"raan_deg":263.5087,"arg_perigee_deg":280.3717,"mean_anomaly_deg":79.7013,"bstar":5.5333e-6,"rev_number":15956,"period_min":94.266986358924,"perigee_km":482.31755964023,"apogee_km":483.80369504631,"semimajor_km":6861.1976273433,"source":"CELESTRAK","updated_at":"2026-09-21T09:00:33.836940Z"}}}